GW5292 Weather Reports


time (UTC)temp
F
wind
direction
speed
knots
gust
knots
rain 1hr
in
rain 24hr
in
rain mn
in
humidity
%
barometer
mb
20260902213008 73 33 0.9 1.7 0.01 0.37 0.07 91 1018.4
20260902211508 73 219 0.9 1.7 0.01 0.37 0.07 90 1018.2
20260902210010 73 352 0.0 1.7 0.01 0.37 0.07 1018.1
20260902204513 73 308 0.0 3.5 0.01 0.37 0.07 1017.9
20260902203010 74 9 0.9 1.7 0.00 0.36 0.06 91 1017.6
20260902201508 73 205 0.0 2.6 0.00 0.36 0.06 91 1017.6
20260902200011 73 297 0.0 0.0 0.00 0.36 0.06 91 1018.1
20260902194518 73 304 0.0 0.9 0.00 0.36 0.06 91 1018.4
20260902193011 73 344 0.0 1.7 0.00 0.36 0.06 91 1018.7
20260902191514 73 344 0.9 3.5 0.00 0.36 0.06 92 1018.3
20260902190019 72 328 0.9 4.3 0.00 0.36 0.06 92 1018.1
20260902184516 72 26 0.0 2.6 0.00 0.36 0.06 94 1018.3
20260902183014 72 46 0.9 3.5 0.00 0.36 0.06 94 1018.4
20260902181516 71 33 0.0 1.7 0.01 0.36 0.06 94 1019.2
20260902180017 71 14 1.7 2.6 0.03 0.36 0.06 94 1019.5
20260902174518 71 25 0.0 0.9 0.05 0.36 0.06 95 1019.6
20260902173015 71 333 0.0 0.0 0.06 0.36 0.06 94 1019.8
20260902171518 71 333 0.0 1.7 0.05 0.35 0.05 94 1020.0
20260902170018 71 244 0.0 0.9 0.03 0.33 0.03 93 1019.9
20260902164516 72 244 0.0 1.7 0.01 0.31 0.01 92 1020.1
20260902163018 72 161 0.0 1.7 0.00 0.30 0.00 90 1020.3
20260902161520 72 213 0.0 1.7 0.00 0.30 0.00 91 1020.3
20260902160012 72 88 0.0 3.5 0.00 0.30 0.00 91 1020.1
20260902154511 72 40 0.0 2.6 0.00 0.30 0.00 91 1020.1
20260902153016 72 315 0.9 1.7 0.00 0.30 0.00 91 1019.9
20260902151520 71 338 0.9 2.6 0.00 0.30 0.00 92 1019.4
20260902150006 71 72 0.9 1.7 0.00 0.30 0.00 92 1019.6
20260902144510 71 340 0.9 3.5 0.00 0.30 0.00 92 1020.0
20260902143015 71 214 0.0 1.7 0.00 0.30 0.00 93 1020.0
20260902141533 71 14 0.9 1.7 0.00 0.30 0.00 93 1019.9
20260902140004 71 30 0.9 2.6 0.00 0.30 0.00 93 1020.0
20260902134510 70 32 0.9 3.5 0.00 0.30 0.00 93 1019.9
20260902133011 70 248 0.0 2.6 0.00 0.30 0.00 93 1019.7
20260902131522 70 36 0.9 3.5 0.00 0.30 0.00 94 1019.6
20260902130026 70 20 0.9 2.6 0.00 0.30 0.00 94 1019.5
20260902124507 70 275 0.0 1.7 0.00 0.30 0.00 94 1019.2
20260902123010 70 142 0.0 1.7 0.00 0.30 0.00 95 1019.2
20260902121519 70 38 0.0 1.7 0.00 0.30 0.00 96 1019.0
20260902120024 70 39 0.9 4.3 0.00 0.30 0.00 96 1018.8
20260902114534 70 280 0.0 1.7 0.00 0.30 0.00 96 1018.8
20260902113009 70 23 0.0 1.7 0.00 0.30 0.00 97 1019.0
20260902111515 70 31 0.0 1.7 0.00 0.30 0.00 97 1018.6
20260902110023 70 35 0.0 0.9 0.00 0.30 0.00 97 1018.5
20260902104537 70 338 0.0 1.7 0.00 0.30 0.00 97 1018.8
20260902103030 70 338 0.0 0.0 0.00 0.30 0.00 97 1018.7
20260902101510 70 338 0.0 0.0 0.00 0.30 0.00 97 1018.5
20260902100029 70 338 0.0 0.9 0.00 0.30 0.00 97 1018.3
20260902094524 70 334 0.0 1.7 0.00 0.30 0.00 97 1018.3
20260902093027 70 338 0.0 0.0 0.00 0.30 0.00 97 1018.2
20260902091541 69 338 0.0 0.0 0.00 0.30 0.00 97 1018.1
20260902090013 69 337 0.0 0.0 0.00 0.30 0.00 97 1018.1
20260902084520 69 337 0.0 0.0 0.00 0.30 0.00 97 1018.1
20260902083025 69 338 0.0 0.0 0.00 0.30 0.00 97 1017.8
20260902081532 69 338 0.0 0.0 0.00 0.30 0.00 97 1017.6
20260902080034 69 338 0.0 0.9 0.00 0.30 0.00 96 1017.4
20260902074517 69 348 0.9 1.7 0.00 0.30 0.00 97 1017.3
20260902073024 69 24 0.9 1.7 0.00 0.30 0.00 96 1017.1
20260902071529 69 348 0.9 0.9 0.00 0.30 0.00 96 1017.0
20260902070033 69 348 0.0 0.0 0.00 0.30 0.00 96 1017.0
20260902064534 69 348 0.0 0.0 0.00 0.30 0.00 96 1017.2
20260902063023 69 348 0.0 1.7 0.00 0.30 0.00 96 1017.0
20260902061530 70 348 0.0 1.7 0.00 0.30 0.00 96 1017.3
20260902060016 70 348 0.0 0.0 0.00 0.30 0.00 96 1017.3
20260902054513 70 348 0.0 0.9 0.00 0.30 0.00 96 1017.5
20260902053032 70 348 0.0 1.7 0.00 0.30 0.00 96 1017.5
20260902051529 71 348 0.0 1.7 0.00 0.30 0.00 96 1017.6
20260902050005 71 348 0.0 0.0 0.00 0.30 0.00 96 1017.3
20260902044511 71 348 0.0 1.7 0.00 0.30 0.00 96 1017.1
20260902043017 71 296 0.0 1.7 0.00 0.30 0.00 96 1017.4
20260902041524 71 296 0.0 1.7 0.00 0.30 0.00 96 1017.5
20260902040028 71 250 0.0 0.0 0.00 0.30 0.00 96 1017.4
20260902034507 71 250 0.0 0.0 0.00 0.30 0.30 96 1017.3
20260902033023 71 251 0.0 0.0 0.00 0.30 0.30 96 1016.8
20260902031518 71 202 0.0 0.0 0.00 0.31 0.30 96 1016.1
20260902030026 71 202 0.0 0.0 0.00 0.31 0.30 96 1015.8
20260902024528 71 202 0.0 1.7 0.00 0.31 0.30 96 1015.9
20260902023008 71 202 0.0 0.9 0.00 0.31 0.30 96 1015.7
20260902021518 71 202 0.0 1.7 0.00 0.31 0.30 96 1015.4
20260902020023 71 202 0.0 1.7 0.00 0.31 0.30 96 1015.6
20260902014535 71 210 0.0 0.9 0.00 0.31 0.30 96 1015.4
20260902013033 71 201 0.0 1.7 0.00 0.31 0.30 95 1015.3
20260902011527 71 201 0.0 1.7 0.00 0.31 0.30 96 1015.1
20260902010036 72 201 0.0 1.7 0.00 0.31 0.30 95 1015.4
20260902004533 72 201 0.0 1.7 0.00 0.31 0.30 95 1015.1
20260902003034 72 352 0.0 1.7 0.01 0.31 0.30 95 1015.1
20260902001533 72 206 0.0 1.7 0.11 0.31 0.30 95 1015.1
20260902000027 72 95 0.0 2.6 0.18 0.31 0.30 93 1015.4
20260901234554 72 55 1.7 4.3 0.19 0.31 0.30 93 1015.2
20260901233028 73 352 2.6 4.3 0.28 0.30 0.29 92 1015.5
20260901231545 74 146 0.9 3.5 0.19 0.20 0.19 89 1015.6
20260901230043 75 200 1.7 2.6 0.12 0.13 0.12 90 1013.6
20260901224530 77 200 2.6 5.2 0.11 0.12 0.11 84 1013.8
20260901223035 83 184 0.0 4.3 0.01 0.02 0.01 79 1013.5
20260901221535 86 194 0.0 1.7 0.00 0.01 0.00 75 1013.6
20260901220036 87 194 0.0 0.9 0.00 0.01 0.00 74 1013.0
20260901214531 88 194 0.9 0.9 0.00 0.01 0.00 71 1013.0